Back to catalog

SL-8 DEB

AliveLEO
NORAD 21177·DEBRIS·🇷🇺 Russia

Launched Feb 12, 1991 from Plesetsk Cosmodrome

Loading…

Next Passes (next 24 hours)

TLE

FreshSource: Space-Track

Epoch: Sep 14, 2026, 14:25 UTC

1 21177U 91009AQ  26257.60079956 -.00000085  00000-0 -71026-3 0  9995
2 21177  74.1120 343.7563 0146314 310.5895 113.3076 12.13558074573817

Track SL-8 DEB in real time with AllMySat

Download on the App Store